Terminal Aerodrome Forecast
Issued by NWS

Home | Current Version | Previous Version | Graphics & Text | Print | Product List | Glossary On
Versions: 1 2 3 4 5 6 7 8 9 10 11 12 13 14 15 16 17 18 19 20
000
FTUS42 KMHX 181417 AAA
TAFISO
TAF AMD
KISO 181417Z 1814/1912 24010KT P6SM SHRA OVC090
     FM181600 28009KT P6SM VCSH SCT030 BKN090
     FM182000 32012KT P6SM FEW250
      AMD LTD TO CLD VIS AND WIND=

USA.gov is the U.S. government's official web portal to all federal, state and local government web resources and services.